Tracking 23645 objects as of 22-Sep-2021
HD Live streaming from Space Station
objects crossing your sky now

GALILEO 21 (2C7)

Track GALILEO 21 (2C7) now!
GALILEO 21 (2C7) is classified as:


NORAD ID: 43057
Int'l Code: 2017-079C
Perigee: 23,212.8 km
Apogee: 23,245.8 km
Inclination: 55.9 °
Period: 844.7 minutes
Semi major axis: 29600 km
RCS: Unknown
Launch date: December 12, 2017
Source: European Space Agency (ESA)
Launch site: FRENCH GUIANA (FRGUI)
aabbcc
Your satellite tracking list
Your tracking list is empty




NASA's NSSDC Master Catalog

Two Line Element Set (TLE):
1 43057U 17079C   21264.10716163  .00000001  00000-0  00000-0 0  9994
2 43057  55.9276 269.1371 0005584 282.3663  77.5790  1.70474191 23493
Source of the keplerian elements: AFSPC